Weather History for 08181 - May, 2013

Change the Weather History Date:

Wednesday, May 15, 2013

  Actual Average Record
Temperature  
Mean Temperature 62 °F -  
Max Temperature 67 °F 72 °F - ()
Min Temperature 57 °F 60 °F - ()
Degree Days  
Heating Degree Days 3    
Growing Degree Days 12 (Base 50)    
Moisture  
Dew Point 57 °F    
Average Humidity 85    
Maximum Humidity 100    
Minimum Humidity 52    
Precipitation  
Precipitation 0.02 in 0.06 in - ()
Sea Level Pressure  
Sea Level Pressure 29.59 in    
Wind  
Wind Speed 5 mph ()    
Max Wind Speed 24 mph    
Max Gust Speed -    
Visibility 6.3 miles    
Events Rain    
T = Trace of Precipitation, MM = Missing Value Source: Averaged Metar Reports

Daily Weather History Graph

Daily Weather History Graph

Search for Another Location

Airport or City:

Trip Planner

Search our weather history database for the weather conditions in past years. The results will help you decide how hot, cold, wet, or windy it might be!

Date:

Astronomy

May. 15, 2013 Rise Set
Actual Time 6:33 AM CEST 9:03 PM CEST
Civil Twilight 6:01 AM CEST 9:35 PM CEST
Nautical Twilight 5:22 AM CEST 10:14 PM CEST
Astronomical Twilight 4:38 AM CEST 10:58 PM CEST
Moon 10:54 AM CEST (5/15) 12:40 AM CEST (5/15)
Length of Visible Light 15h 33m
Length of Day
14h 30m
Waxing Crescent, 24% of the Moon is Illuminated
May 15
Waxing Crescent
May 18
First Quarter
May 25
Full
May 31
Last Quarter
Jun 8
New

Hourly Weather History & Observations

Time (CEST) Temp. Dew Point Humidity Pressure Visibility Wind Dir Wind Speed Gust Speed Precip Events Conditions
12:00 AM 62.6 °F 59.0 °F 88% 29.74 in 6.2 mi Calm Calm - N/A   Partly Cloudy
12:30 AM 62.6 °F 59.0 °F 88% 29.74 in 6.2 mi NNE 2.3 mph - N/A   Partly Cloudy
1:00 AM 60.8 °F 59.0 °F 94% 29.74 in 6.2 mi NW 1.2 mph - N/A   Mostly Cloudy
1:30 AM 60.8 °F 59.0 °F 94% 29.71 in 6.2 mi NNW 3.5 mph - N/A   Partly Cloudy
2:00 AM 61 °F 56 °F 77% 29.72 in 7 mi North 8.1 mph - -   Partly Cloudy
2:00 AM 60.8 °F 57.2 °F 88% 29.71 in 6.2 mi NW 5.8 mph - N/A   Partly Cloudy
2:30 AM 60.8 °F 57.2 °F 88% 29.68 in 6.2 mi NNW 4.6 mph - N/A   Partly Cloudy
3:00 AM 60.8 °F 57.2 °F 88% 29.68 in 6.2 mi NW 4.6 mph - N/A   Partly Cloudy
3:30 AM 60.8 °F 57.2 °F 88% 29.65 in 6.2 mi NW 4.6 mph - N/A   Partly Cloudy
4:00 AM 60.8 °F 57.2 °F 88% 29.65 in 6.2 mi NW 3.5 mph - N/A   Partly Cloudy
4:30 AM 60.8 °F 57.2 °F 88% 29.62 in 5.6 mi NNW 4.6 mph - N/A   Partly Cloudy
5:00 AM 59.0 °F 57.2 °F 94% 29.62 in 5.6 mi NNW 4.6 mph - N/A   Partly Cloudy
5:30 AM 59.0 °F 57.2 °F 94% 29.59 in 5.6 mi NNW 4.6 mph - N/A   Partly Cloudy
6:00 AM 59.0 °F 57.2 °F 94% 29.59 in 5.6 mi NW 3.5 mph - N/A   Partly Cloudy
6:30 AM 59.0 °F 57.2 °F 94% 29.59 in 5.6 mi NNW 5.8 mph - N/A   Partly Cloudy
7:00 AM 59.0 °F 57.2 °F 94% 29.59 in 6.2 mi Variable 1.2 mph - N/A   Partly Cloudy
7:30 AM 59.0 °F 57.2 °F 94% 29.59 in 6.2 mi Calm Calm - N/A   Partly Cloudy
8:00 AM 60 °F 55 °F 78% 29.60 in 7 mi North 4.6 mph - -   Mostly Cloudy
8:00 AM 59.0 °F 55.4 °F 88% 29.59 in 6.2 mi Variable 2.3 mph - N/A   Mostly Cloudy
8:30 AM 60.8 °F 57.2 °F 88% 29.59 in 6.2 mi Variable 2.3 mph - N/A   Mostly Cloudy
9:00 AM 62.6 °F 57.2 °F 82% 29.59 in 6.2 mi East 4.6 mph - N/A   Mostly Cloudy
9:30 AM 64.4 °F 57.2 °F 77% 29.59 in 6.2 mi East 3.5 mph - N/A   Mostly Cloudy
10:00 AM 62.6 °F 59.0 °F 88% 29.59 in 6.2 mi East 5.8 mph - N/A   Mostly Cloudy
10:30 AM 62.6 °F 59.0 °F 88% 29.59 in 6.2 mi East 5.8 mph - N/A   Mostly Cloudy
11:00 AM 64.4 °F 59.0 °F 83% 29.56 in 6.2 mi East 6.9 mph - N/A   Mostly Cloudy
11:30 AM 66.2 °F 59.0 °F 78% 29.56 in 6.2 mi East 5.8 mph - N/A   Mostly Cloudy
12:00 PM 64.4 °F 57.2 °F 77% 29.56 in 6.2 mi Variable 4.6 mph - N/A   Mostly Cloudy
12:30 PM 66.2 °F 57.2 °F 73% 29.56 in 6.2 mi ESE 6.9 mph - N/A   Mostly Cloudy
1:00 PM 66.2 °F 59.0 °F 78% 29.56 in 6.2 mi ESE 8.1 mph - N/A   Mostly Cloudy
1:30 PM 66.2 °F 55.4 °F 68% 29.56 in 6.2 mi ESE 6.9 mph - N/A   Mostly Cloudy
2:00 PM 66 °F 52 °F 52% 29.57 in 19 mi SE 5.8 mph - -   Overcast
2:00 PM 66.2 °F 55.4 °F 68% 29.56 in 6.2 mi SE 5.8 mph - N/A   Mostly Cloudy
2:30 PM 66.2 °F 59.0 °F 78% 29.53 in 6.2 mi ESE 8.1 mph - N/A   Scattered Clouds
3:00 PM 68.0 °F 59.0 °F 73% 29.53 in 6.2 mi East 8.1 mph - N/A   Scattered Clouds
3:30 PM 66.2 °F 57.2 °F 73% 29.53 in 6.2 mi East 10.4 mph - N/A   Scattered Clouds
4:00 PM 66.2 °F 59.0 °F 78% 29.53 in 6.2 mi East 10.4 mph - N/A   Scattered Clouds
4:30 PM 66.2 °F 60.8 °F 83% 29.53 in 6.2 mi East 10.4 mph - N/A   Mostly Cloudy
5:00 PM 64.4 °F 60.8 °F 88% 29.53 in 6.2 mi East 12.7 mph - N/A   Mostly Cloudy
5:30 PM 64.4 °F 59.0 °F 83% 29.53 in 6.2 mi ENE 15.0 mph - N/A   Mostly Cloudy
6:00 PM 60.8 °F 59.0 °F 94% 29.53 in 6.2 mi East 24.2 mph - N/A Rain Light Rain
6:30 PM 60.8 °F 57.2 °F 88% 29.53 in 6.2 mi ENE 21.9 mph - N/A   Light Drizzle
7:00 PM 60.8 °F 57.2 °F 88% 29.50 in 6.2 mi ENE 20.7 mph - N/A   Mostly Cloudy
8:00 PM 60 °F 52 °F 67% 29.54 in 19 mi ENE 19.6 mph - - Rain Light Rain
8:00 PM 60.8 °F 53.6 °F 77% 29.53 in 6.2 mi ENE 18.4 mph - N/A   Drizzle
8:18 PM 59.0 °F 55.4 °F 88% 29.53 in 3.1 mi North 13.8 mph - N/A Rain Rain Showers
8:30 PM 57.2 °F 57.2 °F 100% 29.53 in 2.5 mi NNW 9.2 mph - N/A Rain Rain Showers
9:00 PM 57.2 °F 55.4 °F 94% 29.53 in 3.7 mi North 5.8 mph - N/A Rain Rain Showers
9:30 PM 57.2 °F 55.4 °F 94% 29.56 in 3.7 mi North 8.1 mph - N/A Rain Rain Showers
10:00 PM 57.2 °F 55.4 °F 94% 29.56 in 3.7 mi NNW 5.8 mph - N/A Rain Rain Showers
10:30 PM 57.2 °F 55.4 °F 94% 29.56 in 3.7 mi NNW 4.6 mph - N/A Rain Rain Showers
11:00 PM 57.2 °F 55.4 °F 94% 29.56 in 3.7 mi NNW 3.5 mph - N/A Rain Rain
11:30 PM 57.2 °F 55.4 °F 94% 29.56 in 6.2 mi North 3.5 mph - N/A Rain Rain